Regional Weather Roundup
Issued by NWS Glasgow, MT

Home | Current Version | Previous Version | Text Only | Print | Product List | Glossary On
Versions: 1 2 3 4 5 6 7 8 9 10 11 12 13 14 15 16 17 18 19 20 21 22 23 24 25 26 27 28 29 30 31 32 33 34 35 36 37 38 39 40 41 42 43 44 45 46 47 48 49 50
000
ASUS45 KGGW 250915
RWRGGW
HOURLY WEATHER ROUNDUP FOR NORTHEAST MONTANA
NATIONAL WEATHER SERVICE GLASGOW MONTANA
200 AM MST THU DEC 25 2014

NOTE: "FAIR" INDICATES FEW OR NO CLOUDS BELOW 12,000 FEET WITH NO
SIGNIFICANT WEATHER AND/OR OBSTRUCTIONS TO VISISBILITY.

NORTHEAST MONTANA


CITY           SKY/WX    TMP DP  RH WIND       PRES   REMARKS
GLASGOW        CLOUDY    28  22  78 NW10      29.65R
PLENTYWOOD       N/A     28  27  96 NW12G20     N/A
WOLF POINT     CLOUDY    24  19  81 W7        29.65R
JORDAN           N/A     29  24  82 N16       29.63R
WINNETT          N/A     30  30 100 N7G15       N/A
SIDNEY         PTCLDY    25  19  80 W10       29.63R
GLENDIVE       PTCLDY    27  23  86 NW10      29.61R
MALTA            N/A     31  25  78 N3          N/A
SCOBEY           N/A     27  20  75 NW18G24   29.61R

FORT PECK REPORTS


CITY           SKY/WX    TMP DP  RH WIND       PRES   REMARKS
FORT PECK        N/A     28  24  85 NW12        N/A
THE PINES        N/A     30  25  81 N6          N/A

SOUTHEAST MONTANA


CITY           SKY/WX    TMP DP  RH WIND       PRES   REMARKS
BILLINGS       LGT SNOW  30  29  96 NE15      29.58R FOG
MILES CITY     CLOUDY    31  27  85 N9        29.59R
BAKER          CLOUDY    28  25  88 N5        29.56R
LIVINGSTON     LGT SNOW  29  25  85 E21G30    29.54R VSB 1

CENTRAL MONTANA


CITY           SKY/WX    TMP DP  RH WIND       PRES   REMARKS
HAVRE          CLOUDY    26  22  84 NW6       29.73R
LEWISTOWN      CLOUDY    26  23  88 NW6       29.63R
GREAT FALLS    MIX PCPN  25  23  93 N9        29.71R
CUT BANK       CLOUDY    23  18  81 N13       29.73R
HELENA         CLOUDY    29  23  78 NW13      29.64R
BUTTE          CLOUDY    26  19  74 NW14      29.53R
BOZEMAN        CLOUDY    29  27  92 NW6       29.51R

WESTERN MONTANA


CITY           SKY/WX    TMP DP  RH WIND       PRES   REMARKS
MISSOULA       LGT SNOW  31  30  96 NW8       29.70R VSB 1
KALISPELL      NOT AVBL

NORTH DAKOTA


CITY           SKY/WX    TMP DP  RH WIND       PRES   REMARKS
WILLISTON      CLOUDY    25  20  81 VRB3      29.60R
DICKINSON      CLOUDY    27  23  85 NW8       29.53R
MINOT          PTCLDY    27  21  78 W15       29.51R
BISMARCK       CLOUDY    27  24  89 CALM      29.55R

SOUTHERN SASKATCHEWAN


CITY           SKY/WX    TMP DP  RH WIND       PRES   REMARKS
REGINA         FLURRIES  23  21  93 NW17      29.61R
ESTEVAN        FLURRIES  28  25  86 NW16      29.55R
SWIFT CURRENT  CLOUDY    23  21  93 NW20G26   29.66R




USA.gov is the U.S. government's official web portal to all federal, state and local government web resources and services.